Location: Huberhof
(49.2050°N, 7.4980°E)
Time: 05:20:12
(UTC+00:00)

Cosmos 2227 Rocket - Pass Details

Date: 29 October 2020
Orbit: 839 x 845 km, 71.0° (Epoch: 25 November)

Event Time Altitude Azimuth Distance (km) Brightness Sun altitude
Rises 18:34:38 0° 323° (NW) 3,408 6.0 -23.6°
Reaches altitude 10° 18:37:26 10° 311° (NW) 2,470 5.4 -24.0°
Maximum altitude 18:42:00 26° 257° (WSW) 1,613 4.3 -24.8°
Drops below altitude 10° 18:46:33 10° 203° (SSW) 2,459 4.8 -25.5°
Sets 18:49:21 0° 191° (S) 3,390 5.4 -26.0°
